STARLINK-36361, 67900

Orbit data source: Space-Track

STARLINK-36361, 67900 is a payload satellite owned by SpaceX/Seattle (US) in SSO that was launched on Sat, 21 Feb 2026 UTC via an FALCON 9 launch vehicle from the Air Force Western Test Range (AFWTR). Payload-class satellites include a variety of spacecraft equipped with specific instruments for various scientific and technological missions. These include communications satellites like Starlink; space stations such as the ISS; scientific satellites like the Hubble; Earth observation satellites from companies like Planet Labs, Umbra, and HawkEye 360; GPS; miniature CubeSats for education and research; and military/defense satellites.

Loading next visibility...
Identifier
67900, 2026-035X
Orbit
SSO
Country
Flag of USUS
Related business
Manufacturer
SpaceX/Seattle
Mission
Operational Commercial Communications
Bus & Motor
STARLINK V2MO, Unknown motor
Mass
575 kg wet, ~530 kg dry
Launch date (UTC)
2026-02-21 (4 months ago)
Launch vehicle
FALCON 9
Launch site
Air Force Western Test Range (AFWTR)
Object type
Payload
Rocket body
Debris
Shape & HBR
Box + 2 Pan, 17.7 m
Radar Cross Section
36.964 m², Large (>1 m²)

Expand to show TLE details & history
Last TLE update: 12 hours ago

TLE from 12 hours ago
0 STARLINK-36361
1 67900U 26035X   26171.34026612  .00015529  00000-0  48248-3 0  9990
2 67900  97.2840 104.5601 0002187 113.1141 247.0332 15.33435325 19725
Epoch: 2026-06-20T08:09Z
TLE epoch observation values (Epoch: 2026-06-20T08:09:58.992Z)
Latitude
-0.00008°
Longitude
73.50802°
Altitude
469.268 km
Speed
7.631 km/s
True Right ascension
06h 58m 14s
True Declination
0° 00' 00"
Sunlit
Object was in daylight at epoch
Visualization orbit readout
Latitude
Unknown
Longitude
Unknown
Altitude
Unknown
Speed
Unknown
Apparent Right ascension
Unknown
Apparent Declination
Unknown
Sunlit
N/A
Visualization observer readout
Local Sidereal Time
07:15:09
Azimuth
Unknown
Elevation
Unknown
Doppler factor
Unknown
Orbital elements
Apogee altitude
464.011 km
Perigee altitude
461.019 km
Semi-major axis
6,840.652 km
Eccentricity
0.00022
Inclination
97.284°
RAAN
104.5601°
Arg. of periapsis
113.1141°
True anomaly
247.01013°
Mean anomaly
247.0332°
Eccentric anomaly
247.02166°
Mean motion
3.83616 °/min
Orbital period
93.84 mins
BSTAR
0.00048248
Loading maneuver chart data...
Computing Atmospheric mass density...
Loading historical data...
Loading historical data...
Loading historical data...
Loading historical data...
Loading historical data...
Loading historical data...
Loading historical data...

Documentation

Showing up to 5 results
|